User: anonymous   Login
Location: Unspecified
(0.0000°N, 0.0000°E)
Time: 09:29:12
(UTC+00:00)
Language:

SCATHA - Orbit

View from above orbital plane
View from above orbital plane
View from above satellite
View from above satellite

Ground track
Ground track

The orbit data is extracted from the following two-line orbital elements,

1 11256U 79007A   18018.28428885 -.00000265 +00000-0 +00000-0 0  9995
2 11256 016.6219 324.0610 1786487 032.6064 123.7677 01.01530740111265
Epoch (UTC): 18 January 2018 06:49:22
Eccentricity: 0.1786487
inclination: 16.6219°
perigee height: 27967 km
apogee height: 42907 km
right ascension of ascending node: 324.0610°
argument of perigee: 32.6064°
revolutions per day: 1.01530740
mean anomaly at epoch: 123.7677°
orbit number at epoch: 11126

The dashed part of the orbit path shows where the satellite is in the earth's shadow,  

DLR